Weather History for Benton Harbor, MI

Change the Weather History Date:

Monday, March 3, 2014

  Actual Average Record
Temperature  
Mean Temperature 2 °F -  
Max Temperature 12 °F 42 °F 75 °F (1974)
Min Temperature -9 °F 25 °F -9 °F (2014)
Degree Days  
Heating Degree Days 64    
Moisture  
Dew Point -4 °F    
Average Humidity 72    
Maximum Humidity 91    
Minimum Humidity 44    
Precipitation  
Precipitation 0.00 in - - ()
Sea Level Pressure  
Sea Level Pressure 30.47 in    
Wind  
Wind Speed 4 mph (NE)    
Max Wind Speed 12 mph    
Max Gust Speed -    
Visibility 10 miles    
Events      
Averages and records for this station are not official NWS values.
T = Trace of Precipitation, MM = Missing Value Source: NWS Daily Summary

Daily Weather History Graph

Daily Weather History Graph

Search for Another Location

Airport:

Trip Planner

Search our weather history database for the weather conditions in past years. The results will help you decide how hot, cold, wet, or windy it might be!

Date:

Astronomy

Mar. 03, 2014 Rise Set
Actual Time 7:17 AM EST 6:38 PM EST
Civil Twilight 6:49 AM EST 7:06 PM EST
Nautical Twilight 6:17 AM EST 7:38 PM EST
Astronomical Twilight 5:44 AM EST 8:11 PM EST
Moon 8:22 AM EST (3/3) 9:44 PM EST (3/3)
Length of Visible Light 12h 16m
Length of Day
11h 20m
Waxing Crescent, 8% of the Moon is Illuminated
Mar 3
Waxing Crescent
Mar 8
First Quarter
Mar 16
Full
Mar 23
Last Quarter
Mar 30
New

Hourly Weather History & Observations

Time (EST) Temp. Windchill Dew Point Humidity Pressure Visibility Wind Dir Wind Speed Gust Speed Precip Events Conditions
12:53 AM 3.9 °F -5.3 °F -0.9 °F 80% 30.43 in 10.0 mi ENE 4.6 mph - N/A   Clear
1:53 AM 3.0 °F -6.4 °F -2.9 °F 76% 30.44 in 10.0 mi ENE 4.6 mph - N/A   Scattered Clouds
2:01 AM 1.9 °F -7.6 °F -2.9 °F 80% 30.40 in 10.0 mi NE 4.6 mph - N/A   Mostly Cloudy
2:23 AM 1.9 °F -9.2 °F -4.0 °F 76% 30.39 in 10.0 mi ENE 5.8 mph - N/A   Scattered Clouds
2:53 AM 1.0 °F -8.7 °F -5.1 °F 75% 30.44 in 10.0 mi ENE 4.6 mph - N/A   Clear
3:53 AM 1.0 °F -6.7 °F -5.1 °F 75% 30.43 in 10.0 mi NE 3.5 mph - N/A   Clear
4:53 AM -2.0 °F - -6.0 °F 83% 30.45 in 10.0 mi Calm Calm - N/A   Clear
5:53 AM -5.1 °F - -9.0 °F 83% 30.45 in 10.0 mi Calm Calm - N/A   Clear
6:53 AM -8.0 °F - -9.9 °F 91% 30.48 in 10.0 mi Calm Calm - N/A   Scattered Clouds
7:05 AM -8.0 °F - -11.0 °F 86% 30.43 in 10.0 mi Calm Calm - N/A   Mostly Cloudy
7:19 AM -9.0 °F -18.2 °F -13.0 °F 83% 30.44 in 6.0 mi NNE 3.5 mph - N/A   Scattered Clouds
7:53 AM -2.0 °F -13.9 °F -6.0 °F 83% 30.50 in 10.0 mi NE 5.8 mph - N/A   Clear
8:53 AM 1.9 °F -11.8 °F -6.0 °F 69% 30.51 in 10.0 mi ENE 8.1 mph - N/A   Clear
9:53 AM 3.9 °F -12.2 °F -6.0 °F 64% 30.53 in 10.0 mi ENE 11.5 mph - N/A   Clear
10:53 AM 6.1 °F -7.8 °F -7.1 °F 55% 30.53 in 10.0 mi East 9.2 mph - N/A   Clear
11:53 AM 10.0 °F 0.4 °F -6.0 °F 48% 30.54 in 10.0 mi East 5.8 mph - N/A   Clear
12:53 PM 12.0 °F - -6.0 °F 44% 30.53 in 10.0 mi Calm Calm - N/A   Clear
1:53 PM 10.9 °F 0.2 °F -0.9 °F 59% 30.52 in 10.0 mi NW 6.9 mph - N/A   Clear
2:53 PM 10.0 °F -0.9 °F -0.0 °F 64% 30.51 in 10.0 mi West 6.9 mph - N/A   Clear
3:53 PM 12.0 °F - 1.9 °F 64% 30.52 in 10.0 mi North - - N/A   Clear
4:53 PM 10.9 °F 1.4 °F -0.0 °F 61% 30.52 in 10.0 mi WNW 5.8 mph - N/A   Clear
5:53 PM 10.0 °F - -0.9 °F 61% 30.51 in 10.0 mi Calm Calm - N/A   Clear
6:53 PM 8.1 °F - -2.9 °F 61% 30.51 in 10.0 mi Calm Calm - N/A   Clear
7:53 PM 5.0 °F - -2.0 °F 73% 30.48 in 10.0 mi Calm Calm - N/A   Clear
8:53 PM 3.9 °F - -2.0 °F 76% 30.46 in 10.0 mi Calm Calm - N/A   Partly Cloudy
9:53 PM 1.0 °F -6.7 °F -2.9 °F 83% 30.45 in 10.0 mi East 3.5 mph - N/A   Clear
10:53 PM -0.0 °F - -2.9 °F 88% 30.45 in 10.0 mi Calm Calm - N/A   Clear
11:53 PM 3.0 °F - -2.0 °F 80% 30.43 in 10.0 mi Calm Calm - N/A   Clear